Tracking 18784 objects as of 18-August-2017
HD Live streaming from Space Station
objects crossing your sky now

CUBEBUG 2

Track CUBEBUG 2 now!
10-day predictions
CUBEBUG 2 is classified as:


NORAD ID: 39440
Int'l Code: 2013-066AA
Perigee: 593.0 km
Apogee: 708.6 km
Inclination: 97.6 °
Period: 97.6 minutes
Semi major axis: 7021 km
RCS: Unknown
Launch date: November 21, 2013
Source: (TBD)
Launch site: Orenburg, Russia (OREN)
Uplink (MHz):
Downlink (MHz): 437.445
Beacon (MHz):
Mode: 1k2AFSK 9k6FSK
Call sign: CUBEB2-6
Status: Active

Your satellite tracking list
Your tracking list is empty





NASA's NSSDC Master Catalog

Two Line Element Set (TLE):
1 39440U 13066AA  17229.61909187  .00000231  00000-0  39206-4 0  9998
2 39440  97.6255 257.5653 0082314 100.9463 260.1022 14.75480788201154
Source of the keplerian elements: Caltech